Retour au catalogue

EUTE 28A

EB 1

ActifCommunicationsGEO
NORAD 26719·PAYLOAD·🇪🇺 EU

Lancé Mar 8, 2001 depuis Guiana Space Centre

Loading…

TLE

FraisSource: Space-Track

Époque: Sep 14, 2026, 13:56 UTC

1 26719U 01011A   26257.58073361 -.00000246  00000-0  00000-0 0  9996
2 26719   7.6019  66.3167 0002694 295.5866   4.9714  0.98795010 93265

Suivez EUTE 28A en temps réel avec AllMySat

Download on the App Store